Omak, WA

9:34 AM PST on February 24, 2017 (GMT -0800)
Omak

Weather History for KOMK - January, 2014

Change the Weather History Date:

Friday, January 31, 2014

  Actual Average Record
Temperature  
Mean Temperature 28 °F 29 °F  
Max Temperature 33 °F 36 °F 58 °F (1953)
Min Temperature 22 °F 22 °F -20 °F (1950)
Degree Days  
Heating Degree Days 37 36  
Month to date heating degree days 1055 1183  
Since 1 July heating degree days 3955 3933  
Cooling Degree Days 0 0  
Month to date cooling degree days 0 0  
Year to date cooling degree days 0 0  
Moisture  
Dew Point 15 °F    
Average Humidity 55    
Maximum Humidity 69    
Minimum Humidity 41    
Precipitation  
Precipitation 0.00 in 0.04 in 0.50 in (1995)
Month to date precipitation 0.32 1.89  
Year to date precipitation 0.32 1.89  
Sea Level Pressure  
Sea Level Pressure 30.10 in    
Wind  
Wind Speed 13 mph (NNW)    
Max Wind Speed 21 mph    
Max Gust Speed 26 mph    
Visibility 10 miles    
Events      
T = Trace of Precipitation, MM = Missing Value Source: NWS Daily Summary

Daily Weather History Graph

Daily Weather History Graph

Search for Another Location

Airport or City:

Trip Planner

Search our weather history database for the weather conditions in past years. The results will help you decide how hot, cold, wet, or windy it might be!

Date:

Astronomy

Jan. 31, 2014 Rise Set
Actual Time 7:28 AM PST 4:55 PM PST
Civil Twilight 6:54 AM PST 5:29 PM PST
Nautical Twilight 6:16 AM PST 6:06 PM PST
Astronomical Twilight 5:40 AM PST 6:43 PM PST
Moon 7:32 AM PST (1/31) 6:36 PM PST (1/31)
Length of Visible Light 10h 34m
Length of Day
9h 27m
New Moon, 1% of the Moon is Illuminated
Jan 31
New Moon
Feb 6
First Quarter
Feb 14
Full
Feb 22
Last Quarter
Mar 1
New

Hourly Weather History & Observations

Time (PST) Temp. Windchill Dew Point Humidity Pressure Visibility Wind Dir Wind Speed Gust Speed Precip Events Conditions
12:53 AM 28.9 °F 19.2 °F 19.9 °F 69% 29.99 in 10.0 mi NW 11.5 mph - N/A   Mostly Cloudy
1:53 AM 28.9 °F 19.8 °F 19.0 °F 67% 30.01 in 10.0 mi NNW 10.4 mph - N/A   Mostly Cloudy
2:53 AM 28.9 °F 19.8 °F 19.0 °F 67% 30.02 in 10.0 mi NNW 10.4 mph - N/A   Overcast
3:53 AM 28.9 °F 19.8 °F 19.0 °F 67% 30.02 in 10.0 mi NW 10.4 mph - N/A   Overcast
4:53 AM 28.0 °F 18.6 °F 18.0 °F 66% 30.03 in 10.0 mi NW 10.4 mph - N/A   Overcast
5:53 AM 27.0 °F 16.1 °F 17.1 °F 66% 30.05 in 10.0 mi NNW 12.7 mph - N/A   Overcast
6:53 AM 26.1 °F 15.6 °F 16.0 °F 66% 30.06 in 10.0 mi NNW 11.5 mph - N/A   Overcast
7:53 AM 25.0 °F 13.6 °F 15.1 °F 66% 30.09 in 10.0 mi NNW 12.7 mph - N/A   Clear
8:53 AM 27.0 °F 14.7 °F 16.0 °F 63% 30.10 in 10.0 mi NNW 16.1 mph - N/A   Overcast
9:53 AM 30.0 °F 20.0 °F 15.1 °F 54% 30.12 in 10.0 mi North 12.7 mph - N/A   Scattered Clouds
10:53 AM 28.0 °F 17.5 °F 12.9 °F 53% 30.13 in 10.0 mi North 12.7 mph - N/A   Mostly Cloudy
11:53 AM 32.0 °F 21.2 °F 14.0 °F 48% 30.11 in 10.0 mi North 16.1 mph 23.0 mph N/A   Clear
12:53 PM 33.1 °F 23.9 °F 14.0 °F 46% 30.09 in 10.0 mi North 12.7 mph - N/A   Clear
1:53 PM 33.1 °F 23.4 °F 12.9 °F 43% 30.09 in 10.0 mi North 13.8 mph - N/A   Clear
2:53 PM 33.1 °F 23.9 °F 12.9 °F 43% 30.10 in 10.0 mi North 12.7 mph - N/A   Clear
3:53 PM 32.0 °F 23.0 °F 14.0 °F 48% 30.11 in 10.0 mi North 11.5 mph - N/A   Clear
4:53 PM 28.0 °F 18.1 °F 12.0 °F 51% 30.13 in 10.0 mi NNW 11.5 mph - N/A   Clear
5:53 PM 26.1 °F 15.6 °F 12.0 °F 55% 30.13 in 10.0 mi NNW 11.5 mph - N/A   Clear
6:53 PM 26.1 °F 15.6 °F 12.0 °F 55% 30.15 in 10.0 mi NNW 11.5 mph - N/A   Clear
7:53 PM 25.0 °F 13.6 °F 12.0 °F 58% 30.16 in 10.0 mi NNW 12.7 mph - N/A   Clear
8:53 PM 24.1 °F 12.5 °F 12.0 °F 60% 30.17 in 10.0 mi NNW 12.7 mph - N/A   Clear
9:53 PM 23.0 °F 11.7 °F 12.0 °F 63% 30.18 in 10.0 mi NNW 11.5 mph - N/A   Clear
10:53 PM 23.0 °F 8.7 °F 10.9 °F 60% 30.20 in 10.0 mi NNW 18.4 mph - N/A   Clear
11:53 PM 21.9 °F 8.7 °F 10.9 °F 63% 30.21 in 10.0 mi NNW 15.0 mph - N/A   Clear